PAL1A RPLL-VHHH

Flight info

Callsign PAL1A
Flight time 1h 30m
Altitude 40000
Route RDVXCAB/06 CAB A461 NOMAN V532 BETTY
Aircraft A346/H-SDE2E3FGHIJ3J4J5M1RWXY/LB1D1

Departure

Time 2026-05-06 15:31
Airport Ninoy Aquino International Airport (RPLL)

Arrival

Time 2026-05-06 17:02
Airport Hong Kong International Airport (VHHH)
Time Latitude Longitude Altitude Speed Heading
2026-05-06 15:06 14.50460 121.00657 93 ft 0 kts
2026-05-06 15:15 14.50458 121.00657 93 ft 1 kts
2026-05-06 15:15 14.50443 121.00656 93 ft 2 kts
2026-05-06 15:15 14.50436 121.00655 93 ft 2 kts
2026-05-06 15:15 14.50425 121.00657 93 ft 1 kts 339°
2026-05-06 15:16 14.50411 121.00667 93 ft 2 kts 305°
2026-05-06 15:16 14.50406 121.00678 93 ft 2 kts 284°
2026-05-06 15:16 14.50404 121.00690 93 ft 2 kts 263°
2026-05-06 15:16 14.50409 121.00705 93 ft 0 kts 241°
2026-05-06 15:19 14.50405 121.00697 93 ft 6 kts 241°
2026-05-06 15:19 14.50373 121.00638 93 ft 11 kts 240°
2026-05-06 15:19 14.50325 121.00552 93 ft 15 kts 240°
2026-05-06 15:20 14.50264 121.00444 93 ft 15 kts 240°
2026-05-06 15:20 14.50223 121.00372 93 ft 13 kts 238°
2026-05-06 15:20 14.50146 121.00337 93 ft 13 kts 202°
2026-05-06 15:20 14.50077 121.00256 93 ft 17 kts 238°
2026-05-06 15:21 14.50012 121.00140 93 ft 19 kts 240°
2026-05-06 15:21 14.49957 121.00040 93 ft 0 kts 240°
2026-05-06 15:21 14.49946 121.00019 93 ft 5 kts 240°
2026-05-06 15:22 14.49911 120.99978 93 ft 9 kts 203°
2026-05-06 15:22 14.49899 120.99976 93 ft 0 kts 187°
2026-05-06 15:28 14.49894 120.99975 93 ft 2 kts 181°
2026-05-06 15:28 14.49824 121.00005 93 ft 10 kts 133°
2026-05-06 15:28 14.49835 121.00095 93 ft 6 kts 63°
2026-05-06 15:29 14.49835 121.00096 93 ft 0 kts 63°
2026-05-06 15:30 14.49887 121.00196 93 ft 51 kts 61°
2026-05-06 15:31 14.50203 121.00771 93 ft 127 kts 60°
2026-05-06 15:31 14.51578 121.03252 877 ft 162 kts 62°
2026-05-06 15:32 14.52729 121.05318 2025 ft 179 kts 60°
2026-05-06 15:32 14.53380 121.06473 2563 ft 196 kts 60°
2026-05-06 15:32 14.54096 121.07743 3099 ft 209 kts 60°
2026-05-06 15:32 14.54839 121.09073 3441 ft 221 kts 60°
2026-05-06 15:33 14.55361 121.10009 3746 ft 224 kts 60°
2026-05-06 15:33 14.56059 121.11261 4168 ft 231 kts 59°
2026-05-06 15:33 14.57561 121.13000 4574 ft 257 kts 27°
2026-05-06 15:33 14.59323 121.13454 5115 ft 268 kts
2026-05-06 15:34 14.61173 121.13448 5914 ft 268 kts
2026-05-06 15:34 14.62419 121.13445 6444 ft 269 kts
2026-05-06 15:34 14.64287 121.13449 7172 ft 271 kts
2026-05-06 15:34 14.64916 121.13453 7419 ft 272 kts
2026-05-06 15:35 14.70133 121.13302 9369 ft 278 kts 349°
2026-05-06 15:35 14.71979 121.12824 10030 ft 280 kts 341°
2026-05-06 15:35 14.73848 121.12169 10563 ft 289 kts 339°
2026-05-06 15:36 14.75800 121.11455 10864 ft 306 kts 339°
2026-05-06 15:36 14.77862 121.10701 11163 ft 322 kts 339°
2026-05-06 15:36 14.80032 121.09914 11457 ft 339 kts 339°
2026-05-06 15:36 14.82310 121.09093 11746 ft 355 kts 339°
2026-05-06 15:37 14.84689 121.08237 11971 ft 362 kts 339°
2026-05-06 15:37 14.87086 121.07385 11981 ft 363 kts 341°
2026-05-06 15:37 14.89550 121.06714 12213 ft 372 kts 347°
2026-05-06 15:37 14.92108 121.06307 13015 ft 373 kts 353°
2026-05-06 15:38 14.94673 121.06090 13832 ft 372 kts 354°
2026-05-06 15:38 14.97253 121.05909 14533 ft 374 kts 355°
2026-05-06 15:38 14.99843 121.05734 15208 ft 377 kts 355°
2026-05-06 15:38 15.02450 121.05557 15882 ft 379 kts 355°
2026-05-06 15:39 15.05070 121.05379 16545 ft 381 kts 355°
2026-05-06 15:39 15.07726 121.05196 17186 ft 383 kts 356°
2026-05-06 15:39 15.10368 121.05016 17787 ft 386 kts 356°
2026-05-06 15:39 15.13080 121.04829 18395 ft 390 kts 356°
2026-05-06 15:40 15.15749 121.04645 18970 ft 393 kts 356°
2026-05-06 15:40 15.18469 121.04459 19538 ft 396 kts 356°
2026-05-06 15:40 15.21226 121.04269 20078 ft 400 kts 356°
2026-05-06 15:40 15.24029 121.04075 20597 ft 404 kts 356°
2026-05-06 15:41 15.26846 121.03880 21125 ft 407 kts 357°
2026-05-06 15:41 15.29667 121.03686 21639 ft 410 kts 357°
2026-05-06 15:41 15.32530 121.03489 22141 ft 414 kts 357°
2026-05-06 15:41 15.35386 121.03293 22626 ft 417 kts 357°
2026-05-06 15:42 15.38305 121.03092 23107 ft 420 kts 357°
2026-05-06 15:42 15.41191 121.02892 23564 ft 424 kts 358°
2026-05-06 15:42 15.44154 121.02678 24016 ft 428 kts 356°
2026-05-06 15:42 15.47084 121.02189 24448 ft 433 kts 348°
2026-05-06 15:43 15.49988 121.01285 24875 ft 438 kts 341°
2026-05-06 15:43 15.52750 121.00014 25277 ft 444 kts 336°
2026-05-06 15:43 15.55535 120.98554 25687 ft 448 kts 335°
2026-05-06 15:43 15.58299 120.97074 26087 ft 451 kts 335°
2026-05-06 15:44 15.61078 120.95582 26718 ft 448 kts 335°
2026-05-06 15:44 15.63829 120.94107 27242 ft 448 kts 335°
2026-05-06 15:44 15.66584 120.92635 27613 ft 451 kts 335°
2026-05-06 15:44 15.69404 120.91132 27963 ft 455 kts 335°
2026-05-06 15:45 15.72224 120.89629 28315 ft 458 kts 335°
2026-05-06 15:45 15.75061 120.88118 28667 ft 462 kts 335°
2026-05-06 15:45 15.77892 120.86610 29006 ft 465 kts 335°
2026-05-06 15:45 15.80792 120.85065 29348 ft 468 kts 335°
2026-05-06 15:46 15.83653 120.83540 29701 ft 470 kts 335°
2026-05-06 15:46 15.86575 120.81982 30038 ft 473 kts 335°
2026-05-06 15:46 15.89492 120.80427 30353 ft 476 kts 335°
2026-05-06 15:46 15.92453 120.78848 30661 ft 478 kts 335°
2026-05-06 15:47 15.95402 120.77273 30962 ft 481 kts 335°
2026-05-06 15:47 15.98361 120.75694 31261 ft 484 kts 335°
2026-05-06 15:47 16.01374 120.74085 31556 ft 487 kts 335°
2026-05-06 15:47 16.04361 120.72490 31829 ft 489 kts 335°
2026-05-06 15:48 16.07382 120.70875 32094 ft 492 kts 335°
2026-05-06 15:48 16.10301 120.69315 32341 ft 494 kts 335°
2026-05-06 15:48 16.13475 120.67623 32596 ft 496 kts 335°
2026-05-06 15:48 16.16533 120.65997 32828 ft 499 kts 335°
2026-05-06 15:49 16.19598 120.64362 33049 ft 501 kts 335°
2026-05-06 15:49 16.22687 120.62713 33265 ft 503 kts 335°
2026-05-06 15:49 16.25810 120.61043 33502 ft 504 kts 335°
2026-05-06 15:49 16.28908 120.59384 33798 ft 503 kts 335°
2026-05-06 15:50 16.32000 120.57727 34102 ft 503 kts 335°
2026-05-06 15:50 16.35098 120.56067 34401 ft 502 kts 335°
2026-05-06 15:50 16.38179 120.54414 34696 ft 501 kts 335°
2026-05-06 15:50 16.41280 120.52751 34987 ft 500 kts 335°
2026-05-06 15:51 16.44339 120.51109 35268 ft 499 kts 335°
2026-05-06 15:51 16.47402 120.49465 35541 ft 498 kts 335°
2026-05-06 15:51 16.50494 120.47806 35797 ft 498 kts 335°
2026-05-06 15:51 16.53560 120.46159 36038 ft 497 kts 335°
2026-05-06 15:52 16.56576 120.44540 36262 ft 496 kts 335°
2026-05-06 15:52 16.59644 120.42892 36475 ft 496 kts 335°
2026-05-06 15:52 16.62711 120.41242 36670 ft 496 kts 335°
2026-05-06 15:52 16.65749 120.39527 36849 ft 496 kts 332°
2026-05-06 15:53 16.68669 120.37674 37019 ft 497 kts 329°
2026-05-06 15:53 16.71506 120.35651 37183 ft 498 kts 326°
2026-05-06 15:53 16.74253 120.33450 37330 ft 499 kts 322°
2026-05-06 15:53 16.76870 120.31100 37460 ft 499 kts 319°
2026-05-06 15:54 16.79385 120.28583 37590 ft 500 kts 316°
2026-05-06 15:54 16.81810 120.25949 37721 ft 500 kts 315°
2026-05-06 15:54 16.84180 120.23334 37847 ft 500 kts 314°
2026-05-06 15:54 16.86583 120.20677 37948 ft 501 kts 314°
2026-05-06 15:55 16.91359 120.15411 37957 ft 501 kts 315°
2026-05-06 15:55 16.96117 120.10177 37959 ft 501 kts 315°
2026-05-06 15:56 17.00944 120.04870 37958 ft 502 kts 315°
2026-05-06 15:56 17.05729 119.99607 37959 ft 505 kts 315°
2026-05-06 15:57 17.10606 119.94238 37958 ft 510 kts 315°
2026-05-06 15:57 17.15511 119.88866 37959 ft 515 kts 315°
2026-05-06 15:58 17.20436 119.83459 37959 ft 516 kts 315°
2026-05-06 15:58 17.25383 119.78006 37958 ft 516 kts 315°
2026-05-06 15:59 17.30274 119.72605 37958 ft 516 kts 315°
2026-05-06 15:59 17.35203 119.67158 37958 ft 516 kts 315°
2026-05-06 16:00 17.40159 119.61674 37958 ft 516 kts 315°
2026-05-06 16:00 17.45054 119.56254 37958 ft 516 kts 315°
2026-05-06 16:01 17.49970 119.50806 37958 ft 516 kts 315°
2026-05-06 16:01 17.54882 119.45358 37958 ft 516 kts 315°
2026-05-06 16:02 17.59803 119.39896 37957 ft 516 kts 315°
2026-05-06 16:02 17.64734 119.34416 37956 ft 516 kts 314°
2026-05-06 16:03 17.69626 119.28948 37957 ft 516 kts 314°
2026-05-06 16:03 17.74521 119.23480 37957 ft 516 kts 314°
2026-05-06 16:04 17.79421 119.18020 37957 ft 516 kts 314°
2026-05-06 16:04 17.84315 119.12567 37957 ft 516 kts 314°
2026-05-06 16:05 17.89254 119.07063 37957 ft 516 kts 314°
2026-05-06 16:05 17.94132 119.01624 37958 ft 516 kts 314°
2026-05-06 16:06 17.99062 118.96124 37958 ft 514 kts 314°
2026-05-06 16:06 18.03920 118.90672 37962 ft 512 kts 314°
2026-05-06 16:07 18.08785 118.85210 37974 ft 510 kts 313°
2026-05-06 16:07 18.13628 118.79796 37981 ft 508 kts 314°
2026-05-06 16:08 18.18434 118.74431 37983 ft 507 kts 313°
2026-05-06 16:08 18.23250 118.69035 37984 ft 507 kts 313°
2026-05-06 16:09 18.27288 118.64500 37984 ft 507 kts 313°
2026-05-06 16:09 18.32885 118.58206 37984 ft 507 kts 313°
2026-05-06 16:10 18.37701 118.52786 37984 ft 507 kts 313°
2026-05-06 16:10 18.42489 118.47390 37984 ft 507 kts 313°
2026-05-06 16:11 18.47304 118.41961 37984 ft 507 kts 313°
2026-05-06 16:11 18.52116 118.36530 37984 ft 507 kts 313°
2026-05-06 16:12 18.56905 118.31103 37983 ft 507 kts 313°
2026-05-06 16:12 18.61677 118.25680 37984 ft 507 kts 313°
2026-05-06 16:13 18.66483 118.20231 37984 ft 507 kts 313°
2026-05-06 16:13 18.71294 118.14780 37984 ft 507 kts 313°
2026-05-06 16:14 18.76075 118.09361 37984 ft 507 kts 313°
2026-05-06 16:14 18.80878 118.03913 37984 ft 507 kts 313°
2026-05-06 16:15 18.85689 117.98452 37984 ft 507 kts 313°
2026-05-06 16:15 18.90481 117.93010 37983 ft 508 kts 313°
2026-05-06 16:16 18.95301 117.87535 37983 ft 510 kts 313°
2026-05-06 16:16 19.00099 117.82081 37983 ft 512 kts 312°
2026-05-06 16:17 19.04970 117.76525 37983 ft 514 kts 312°
2026-05-06 16:17 19.09807 117.70984 37984 ft 514 kts 312°
2026-05-06 16:18 19.14677 117.65440 37983 ft 514 kts 312°
2026-05-06 16:18 19.19541 117.59904 37984 ft 514 kts 312°
2026-05-06 16:19 19.24358 117.54401 37984 ft 514 kts 312°
2026-05-06 16:19 19.29223 117.48831 37984 ft 514 kts 312°
2026-05-06 16:20 19.34072 117.43272 37984 ft 514 kts 312°
2026-05-06 16:20 19.38895 117.37737 37984 ft 514 kts 312°
2026-05-06 16:21 19.43750 117.32151 37983 ft 514 kts 311°
2026-05-06 16:21 19.48577 117.26572 37987 ft 514 kts 311°
2026-05-06 16:22 19.53396 117.21012 38010 ft 514 kts 311°
2026-05-06 16:22 19.58218 117.15455 38027 ft 514 kts 311°
2026-05-06 16:23 19.63048 117.09885 38035 ft 514 kts 312°
2026-05-06 16:23 19.67872 117.04306 38039 ft 512 kts 313°
2026-05-06 16:24 19.72668 116.98766 38040 ft 508 kts 313°
2026-05-06 16:24 19.77408 116.93294 38040 ft 503 kts 314°
2026-05-06 16:25 19.82099 116.87877 38040 ft 497 kts 314°
2026-05-06 16:25 19.86742 116.82507 38038 ft 495 kts 314°
2026-05-06 16:26 19.91392 116.77122 38036 ft 495 kts 313°
2026-05-06 16:26 19.95975 116.71719 37951 ft 496 kts 311°
2026-05-06 16:27 19.98125 116.68873 37562 ft 490 kts 308°
2026-05-06 16:27 20.00096 116.65955 37216 ft 483 kts 305°
2026-05-06 16:27 20.01888 116.62994 36972 ft 483 kts 302°
2026-05-06 16:27 20.03562 116.59889 36722 ft 484 kts 299°
2026-05-06 16:28 20.05138 116.56730 36474 ft 484 kts 298°
2026-05-06 16:28 20.06705 116.53545 36224 ft 484 kts 298°
2026-05-06 16:28 20.08262 116.50375 35975 ft 484 kts 298°
2026-05-06 16:28 20.09811 116.47224 35727 ft 485 kts 298°
2026-05-06 16:29 20.11382 116.44044 35483 ft 485 kts 299°
2026-05-06 16:29 20.12950 116.40894 35241 ft 486 kts 299°
2026-05-06 16:29 20.14559 116.37656 34991 ft 493 kts 299°
2026-05-06 16:29 20.16144 116.34455 34743 ft 494 kts 298°
2026-05-06 16:30 20.17743 116.31203 34491 ft 492 kts 298°
2026-05-06 16:30 20.18796 116.29057 34325 ft 491 kts 298°
2026-05-06 16:30 20.20895 116.24774 33993 ft 489 kts 298°
2026-05-06 16:30 20.22464 116.21574 33743 ft 487 kts 298°
2026-05-06 16:31 20.24027 116.18388 33494 ft 485 kts 298°
2026-05-06 16:31 20.25596 116.15189 33243 ft 483 kts 298°
2026-05-06 16:31 20.27139 116.12043 32995 ft 481 kts 298°
2026-05-06 16:31 20.28684 116.08891 32746 ft 480 kts 298°
2026-05-06 16:32 20.30251 116.05695 32499 ft 492 kts 298°
2026-05-06 16:32 20.31844 116.02445 32249 ft 498 kts 298°
2026-05-06 16:32 20.33439 115.99187 32000 ft 498 kts 298°
2026-05-06 16:32 20.35037 115.95920 31750 ft 496 kts 298°
2026-05-06 16:33 20.36631 115.92660 31500 ft 496 kts 298°
2026-05-06 16:33 20.38219 115.89410 31256 ft 503 kts 298°
2026-05-06 16:33 20.39830 115.86111 31006 ft 503 kts 298°
2026-05-06 16:34 20.43062 115.79486 30504 ft 499 kts 298°
2026-05-06 16:34 20.44645 115.76239 30260 ft 502 kts 298°
2026-05-06 16:34 20.46286 115.72875 30024 ft 506 kts 298°
2026-05-06 16:35 20.49534 115.66204 29962 ft 508 kts 298°
2026-05-06 16:35 20.52849 115.59553 29958 ft 508 kts 301°
2026-05-06 16:36 20.56794 115.53329 29958 ft 507 kts 309°
2026-05-06 16:36 20.59046 115.50444 29688 ft 506 kts 313°
2026-05-06 16:36 20.61458 115.47745 29209 ft 500 kts 316°
2026-05-06 16:36 20.63916 115.45163 28734 ft 496 kts 317°
2026-05-06 16:37 20.66351 115.42637 28263 ft 492 kts 317°
2026-05-06 16:37 20.68832 115.40065 27780 ft 489 kts 317°
2026-05-06 16:37 20.71241 115.37559 27306 ft 486 kts 317°
2026-05-06 16:37 20.73644 115.35051 26831 ft 482 kts 317°
2026-05-06 16:38 20.76009 115.32568 26358 ft 479 kts 316°
2026-05-06 16:38 20.78374 115.30075 25969 ft 476 kts 316°
2026-05-06 16:38 20.80727 115.27599 25594 ft 473 kts 316°
2026-05-06 16:38 20.83056 115.25153 25220 ft 471 kts 316°
2026-05-06 16:39 20.85404 115.22690 24842 ft 468 kts 316°
2026-05-06 16:39 20.87688 115.20292 24471 ft 465 kts 316°
2026-05-06 16:39 20.89993 115.17869 24094 ft 463 kts 316°
2026-05-06 16:39 20.92287 115.15452 23715 ft 460 kts 316°
2026-05-06 16:40 20.94545 115.13074 23341 ft 458 kts 316°
2026-05-06 16:40 20.96809 115.10692 22964 ft 455 kts 316°
2026-05-06 16:40 20.99049 115.08334 22589 ft 452 kts 316°
2026-05-06 16:40 21.01290 115.05972 22211 ft 450 kts 316°
2026-05-06 16:41 21.03508 115.03629 21833 ft 446 kts 316°
2026-05-06 16:41 21.05728 115.01280 21450 ft 443 kts 316°
2026-05-06 16:41 21.07898 114.98985 21076 ft 440 kts 316°
2026-05-06 16:41 21.10051 114.96709 20702 ft 436 kts 316°
2026-05-06 16:42 21.12235 114.94412 20322 ft 433 kts 316°
2026-05-06 16:42 21.14356 114.92186 19944 ft 430 kts 316°
2026-05-06 16:42 21.16478 114.89953 19570 ft 428 kts 316°
2026-05-06 16:42 21.18591 114.87726 19195 ft 426 kts 316°
2026-05-06 16:43 21.20715 114.85482 18816 ft 423 kts 316°
2026-05-06 16:43 21.22787 114.83292 18443 ft 421 kts 316°
2026-05-06 16:43 21.24875 114.81082 18066 ft 419 kts 316°
2026-05-06 16:43 21.26926 114.78911 17693 ft 416 kts 316°
2026-05-06 16:44 21.28993 114.76721 17315 ft 414 kts 316°
2026-05-06 16:44 21.31012 114.74581 16944 ft 412 kts 316°
2026-05-06 16:44 21.33051 114.72420 16568 ft 410 kts 316°
2026-05-06 16:44 21.35076 114.70272 16191 ft 408 kts 316°
2026-05-06 16:45 21.37069 114.68159 15819 ft 405 kts 316°
2026-05-06 16:45 21.39058 114.66048 15445 ft 403 kts 316°
2026-05-06 16:45 21.41069 114.63912 15065 ft 401 kts 316°
2026-05-06 16:45 21.43046 114.61812 14690 ft 399 kts 315°
2026-05-06 16:46 21.44989 114.59746 14319 ft 397 kts 315°
2026-05-06 16:46 21.46964 114.57677 13937 ft 395 kts 319°
2026-05-06 16:46 21.49182 114.55971 13551 ft 392 kts 330°
2026-05-06 16:46 21.51674 114.54779 13173 ft 391 kts 340°
2026-05-06 16:47 21.54244 114.53872 12979 ft 389 kts 342°
2026-05-06 16:47 21.56817 114.53005 12969 ft 390 kts 342°
2026-05-06 16:47 21.59395 114.52113 12962 ft 390 kts 339°
2026-05-06 16:47 21.61769 114.50749 12959 ft 390 kts 324°
2026-05-06 16:48 21.63779 114.48761 12968 ft 390 kts 314°
2026-05-06 16:48 21.65605 114.46649 12962 ft 390 kts 313°
2026-05-06 16:48 21.67459 114.44471 12959 ft 390 kts 313°
2026-05-06 16:48 21.69263 114.42357 12956 ft 390 kts 313°
2026-05-06 16:49 21.71117 114.40196 12954 ft 390 kts 313°
2026-05-06 16:49 21.72956 114.38058 12948 ft 390 kts 313°
2026-05-06 16:49 21.74793 114.35928 12914 ft 390 kts 313°
2026-05-06 16:49 21.76642 114.33784 12516 ft 389 kts 313°
2026-05-06 16:50 21.78462 114.31664 12093 ft 384 kts 313°
2026-05-06 16:50 21.80263 114.29569 11699 ft 382 kts 313°
2026-05-06 16:50 21.82081 114.27459 11309 ft 380 kts 313°
2026-05-06 16:50 21.83874 114.25381 10928 ft 379 kts 313°
2026-05-06 16:51 21.85648 114.23322 10551 ft 377 kts 313°
2026-05-06 16:51 21.87422 114.21265 10113 ft 375 kts 313°
2026-05-06 16:51 21.89082 114.19128 9668 ft 372 kts 306°
2026-05-06 16:51 21.90466 114.16785 9319 ft 372 kts 301°
2026-05-06 16:52 21.91744 114.14342 8965 ft 371 kts 300°
2026-05-06 16:52 21.92975 114.11937 8618 ft 370 kts 300°
2026-05-06 16:52 21.94205 114.09536 8270 ft 368 kts 300°
2026-05-06 16:52 21.95452 114.07107 7917 ft 367 kts 300°
2026-05-06 16:53 21.96671 114.04739 7571 ft 366 kts 300°
2026-05-06 16:53 21.97906 114.02344 7220 ft 365 kts 300°
2026-05-06 16:53 21.99131 113.99969 6871 ft 363 kts 300°
2026-05-06 16:53 22.00355 113.97598 6521 ft 362 kts 300°
2026-05-06 16:54 22.01575 113.95232 6170 ft 361 kts 300°
2026-05-06 16:54 22.02791 113.92877 5821 ft 360 kts 300°
2026-05-06 16:54 22.04016 113.90503 5467 ft 359 kts 300°
2026-05-06 16:54 22.05220 113.88170 5118 ft 358 kts 300°
2026-05-06 16:55 22.06431 113.85823 4767 ft 357 kts 300°
2026-05-06 16:55 22.07627 113.83501 4418 ft 356 kts 300°
2026-05-06 16:55 22.08820 113.81182 4092 ft 354 kts 300°
2026-05-06 16:55 22.10022 113.78861 3957 ft 354 kts 302°
2026-05-06 16:56 22.11633 113.76868 3694 ft 350 kts 326°
2026-05-06 16:56 22.13753 113.75668 3423 ft 339 kts 339°
2026-05-06 16:56 22.15862 113.74761 3138 ft 318 kts 340°
2026-05-06 16:56 22.17858 113.73892 2855 ft 299 kts 339°
2026-05-06 16:57 22.19721 113.73030 2585 ft 282 kts 338°
2026-05-06 16:57 22.21445 113.72196 2505 ft 266 kts 338°
2026-05-06 16:57 22.23130 113.71558 2409 ft 254 kts 359°
2026-05-06 16:57 22.24788 113.71955 2198 ft 241 kts 36°
2026-05-06 16:58 22.26012 113.73122 2079 ft 231 kts 47°
2026-05-06 16:58 22.27123 113.74382 1805 ft 230 kts 49°
2026-05-06 16:58 22.28025 113.75761 1538 ft 219 kts 64°
2026-05-06 16:58 22.28619 113.77196 1510 ft 199 kts 69°
2026-05-06 16:59 22.29059 113.78518 1459 ft 174 kts 72°
2026-05-06 16:59 22.29387 113.79712 1424 ft 163 kts 81°
2026-05-06 16:59 22.29560 113.80915 1387 ft 162 kts 82°
2026-05-06 16:59 22.29726 113.82131 1321 ft 162 kts 81°
2026-05-06 17:00 22.29896 113.83325 1105 ft 161 kts 82°
2026-05-06 17:00 22.30045 113.84520 865 ft 160 kts 82°
2026-05-06 17:00 22.30201 113.85719 756 ft 161 kts 82°
2026-05-06 17:00 22.30361 113.86893 599 ft 160 kts 83°
2026-05-06 17:01 22.30573 113.88077 415 ft 160 kts 75°
2026-05-06 17:01 22.30923 113.89218 213 ft 159 kts 72°
2026-05-06 17:01 22.31277 113.90327 80 ft 151 kts 72°
2026-05-06 17:01 22.31572 113.91277 42 ft 109 kts 73°
2026-05-06 17:02 22.31714 113.91738 42 ft 22 kts 70°
2026-05-06 17:02 22.31766 113.91893 42 ft 23 kts 71°
2026-05-06 17:02 22.31796 113.92069 42 ft 24 kts 89°
2026-05-06 17:02 22.31770 113.92260 42 ft 26 kts 100°
2026-05-06 17:03 22.31691 113.92435 42 ft 27 kts 153°
2026-05-06 17:03 22.31542 113.92488 42 ft 11 kts 188°
2026-05-06 17:03 22.31512 113.92479 42 ft 0 kts 203°